Home   Weather   Nipigon   Past weeks

Flag for Canada Past Weather in Nipigon, Ontario, Canada — Yesterday and Last 2 Weeks

42 °F

Quite cool.

Feels Like: 33 °F
Forecast: 36 / 42 °F
Wind: 20 mph from North

Location: Katatota Island

Current Time: Oct 24, 2016 at 1:20:24 AM

Latest Report: Oct 24, 2016 at 12:00 AM

Visibility: N/A

Pressure: 30.13 "Hg

Humidity: 84%

Dew Point: 37 °F

Location of NipigonLocation

Past Weather in Nipigon — Graph


Nipigon Temperature Yesterday

Maximum temperature yesterday: 46 °F (at 12:00 AM)
Minimum temperature yesterday: 40 °F (at 6:00 PM)
Average temperature yesterday: 43 °F

High & Low Weather Summary for the Past Weeks

High61 °F (Oct 10, 4:00 PM)100% (Oct 17, 12:00 PM)30.46 "Hg (Oct 17, 12:00 PM)
Low35 °F (Oct 21, 8:00 AM)59% (Oct 9, 5:00 PM)29.46 "Hg (Oct 18, 2:00 AM)
Average45 °F83%29.96 "Hg
* Reported Oct 8 11:00 PM — Oct 23 11:00 PM, Nipigon, Weather by CustomWeather, © 2016

Note: Actual official high and low records may vary slightly from our data, if they occured in-between our weather recording intervals... More about our weather records


Nipigon Weather History for the Previous 24 Hours

Scroll right to see more
Time TempWeatherWind HumidityBarometerVisibility
11:00 PM
Sun, Oct 23
43 °FQuite cool.21 mph86%30.11 "HgN/A
10:00 PM43 °FQuite cool.20 mph79%30.10 "HgN/A
9:00 PM43 °FQuite cool.15 mph73%30.09 "HgN/A
8:00 PM42 °FQuite cool.18 mph78%30.09 "HgN/A
7:00 PM42 °FQuite cool.21 mph81%30.08 "HgN/A
6:00 PM40 °FQuite cool.17 mph85%30.05 "HgN/A
5:00 PM42 °FQuite cool.17 mph78%30.03 "HgN/A
4:00 PM42 °FQuite cool.16 mph80%30.01 "HgN/A
3:00 PM42 °FQuite cool.16 mph81%30.00 "HgN/A
2:00 PM43 °FQuite cool.16 mph83%29.99 "HgN/A
1:00 PM42 °FQuite cool.16 mph90%29.98 "HgN/A
12:00 PM42 °FQuite cool.14 mph86%29.97 "HgN/A
11:00 AM42 °FQuite cool.15 mph92%29.96 "HgN/A
10:00 AM42 °FQuite cool.14 mph91%29.96 "HgN/A
9:00 AM42 °FQuite cool.12 mph96%29.95 "HgN/A
8:00 AM43 °FQuite cool.12 mph91%29.93 "HgN/A
7:00 AM44 °FQuite cool.12 mph89%29.94 "HgN/A
6:00 AM44 °FQuite cool.13 mph87%29.94 "HgN/A
5:00 AM44 °FQuite cool.10 mph91%29.95 "HgN/A
4:00 AM44 °FQuite cool.9 mph94%29.96 "HgN/A
3:00 AM45 °FCool.12 mph91%29.95 "HgN/A
2:00 AM45 °FCool.10 mph85%29.94 "HgN/A
1:00 AM44 °FQuite cool.8 mph93%29.94 "HgN/A
Weather by CustomWeather, © 2016

See weather overviewHow to use our weather pages